Weather History for North Adams, MA

Change the Weather History Date:

Sunday, November 25, 2012

  Actual Average Record
Temperature  
Mean Temperature 30 °F -  
Max Temperature 33 °F 43 °F 64 °F (2004)
Min Temperature 26 °F 27 °F 6 °F (2005)
Degree Days  
Heating Degree Days 36    
Moisture  
Dew Point 18 °F    
Average Humidity 58    
Maximum Humidity 69    
Minimum Humidity 48    
Precipitation  
Precipitation 0.00 in - - ()
Sea Level Pressure  
Sea Level Pressure 29.81 in    
Wind  
Wind Speed 11 mph (West)    
Max Wind Speed 18 mph    
Max Gust Speed 31 mph    
Visibility 10 miles    
Events Snow    
Averages and records for this station are not official NWS values.
T = Trace of Precipitation, MM = Missing Value Source: NWS Daily Summary

Daily Weather History Graph

Daily Weather History Graph

Search for Another Location

Airport:

Trip Planner

Search our weather history database for the weather conditions in past years. The results will help you decide how hot, cold, wet, or windy it might be!

Date:

Astronomy

Nov. 25, 2012 Rise Set
Actual Time 6:57 AM EST 4:22 PM EST
Civil Twilight 6:25 AM EST 4:53 PM EST
Nautical Twilight 5:51 AM EST 5:28 PM EST
Astronomical Twilight 5:17 AM EST 6:02 PM EST
Moon 2:40 PM EST (11/25) 4:05 AM EST (11/25)
Length of Visible Light 10h 27m
Length of Day
9h 25m
Waxing Gibbous, 93% of the Moon is Illuminated
Nov 25
Waxing Gibbous
Nov 28
Full
Dec 6
Last Quarter
Dec 13
New
Dec 20
First Quarter

Hourly Weather History & Observations

Time (EST) Temp. Windchill Dew Point Humidity Pressure Visibility Wind Dir Wind Speed Gust Speed Precip Events Conditions
12:52 AM 30.0 °F 20.0 °F 12.9 °F 49% 29.74 in 10.0 mi WNW 12.7 mph 25.3 mph N/A   Overcast
1:52 AM 28.9 °F 21.9 °F 12.9 °F 51% 29.76 in 10.0 mi West 6.9 mph 18.4 mph N/A   Overcast
2:52 AM 28.0 °F 15.3 °F 12.9 °F 53% 29.76 in 10.0 mi West 18.4 mph 24.2 mph N/A   Mostly Cloudy
3:52 AM 27.0 °F 16.7 °F 14.0 °F 58% 29.78 in 10.0 mi West 11.5 mph 18.4 mph N/A   Scattered Clouds
4:52 AM 26.1 °F 18.4 °F 15.1 °F 63% 29.80 in 10.0 mi West 6.9 mph - N/A   Mostly Cloudy
5:52 AM 27.0 °F 18.0 °F 14.0 °F 58% 29.81 in 10.0 mi West 9.2 mph - N/A   Overcast
6:52 AM 27.0 °F 15.6 °F 12.9 °F 56% 29.82 in 10.0 mi West 13.8 mph 24.2 mph N/A   Scattered Clouds
7:52 AM 27.0 °F 16.7 °F 12.9 °F 56% 29.83 in 10.0 mi West 11.5 mph - N/A   Scattered Clouds
8:52 AM 30.0 °F 17.9 °F 14.0 °F 51% 29.83 in 10.0 mi West 18.4 mph 29.9 mph N/A   Scattered Clouds
9:52 AM 32.0 °F 22.1 °F 14.0 °F 48% 29.83 in 10.0 mi West 13.8 mph 26.5 mph N/A   Partly Cloudy
10:52 AM 32.0 °F 20.8 °F 14.0 °F 48% 29.82 in 10.0 mi West 17.3 mph 31.1 mph N/A   Overcast
11:52 AM 32.0 °F 22.5 °F 15.1 °F 50% 29.81 in 10.0 mi West 12.7 mph 27.6 mph N/A   Overcast
12:33 PM 30.2 °F 20.8 °F 17.6 °F 60% 29.78 in 10.0 mi West 11.5 mph - N/A   Overcast
12:52 PM 32.0 °F 23.6 °F 18.0 °F 56% 29.80 in 10.0 mi West 10.4 mph - N/A   Overcast
1:52 PM 32.0 °F 22.5 °F 19.0 °F 59% 29.79 in 10.0 mi West 12.7 mph 17.3 mph N/A   Overcast
2:52 PM 32.0 °F 23.0 °F 19.0 °F 59% 29.80 in 10.0 mi West 11.5 mph 19.6 mph N/A   Overcast
3:37 PM 32.0 °F 23.6 °F 19.4 °F 60% 29.77 in 10.0 mi West 10.4 mph - 0.00 in   Overcast
3:52 PM 32.0 °F 23.0 °F 19.9 °F 61% 29.80 in 10.0 mi West 11.5 mph - 0.00 in   Overcast
4:26 PM 32.0 °F 24.2 °F 19.4 °F 60% 29.78 in 10.0 mi West 9.2 mph - N/A   Overcast
4:52 PM 32.0 °F 24.8 °F 21.0 °F 64% 29.81 in 10.0 mi West 8.1 mph - N/A   Overcast
5:26 PM 30.2 °F 25.4 °F 21.2 °F 69% 29.79 in 10.0 mi WNW 4.6 mph - N/A   Overcast
5:52 PM 32.0 °F 26.4 °F 21.0 °F 64% 29.82 in 10.0 mi WNW 5.8 mph - N/A   Overcast
6:52 PM 32.0 °F 23.6 °F 21.0 °F 64% 29.83 in 10.0 mi West 10.4 mph - N/A   Overcast
7:52 PM 32.0 °F 25.6 °F 21.0 °F 64% 29.84 in 10.0 mi West 6.9 mph - N/A   Overcast
8:52 PM 33.1 °F 27.7 °F 19.9 °F 59% 29.85 in 10.0 mi West 5.8 mph - N/A   Overcast
9:52 PM 33.1 °F 26.1 °F 21.0 °F 61% 29.85 in 10.0 mi West 8.1 mph - N/A   Overcast
10:43 PM 33.8 °F 28.6 °F 21.2 °F 60% 29.83 in 10.0 mi West 5.8 mph - N/A   Overcast
10:52 PM 33.1 °F 30.0 °F 21.0 °F 61% 29.86 in 10.0 mi Variable 3.5 mph - N/A   Overcast
11:01 PM 33.8 °F 30.8 °F 21.2 °F 60% 29.83 in 10.0 mi West 3.5 mph - N/A   Overcast
11:52 PM 33.1 °F 25.5 °F 21.0 °F 61% 29.87 in 9.0 mi West 9.2 mph - 0.00 in Snow Light Snow